Location: Kosice
(48.7170°N, 21.2500°E)
Time: 06:24:56
(UTC+02:00)

ISS - Pass Details

Date: 24 March 2019
Orbit: 408 x 410 km, 51.6° (Epoch: 23 April)

Event Time Altitude Azimuth Distance (km) Brightness Sun altitude
Rises 21:04:34 0° 273° (W) 2,335 0.7 -29.4°
Reaches altitude 10° 21:06:41 10° 279° (W) 1,474 -0.4 -29.7°
Enters shadow 21:06:50 11° 280° (W) 1,418 -0.5 -29.7°
